Location: Serin Observatory
(40.5200°N, 74.4500°W)
Time: 16:04:24
(UTC+00:00)

SL-8 R/B - Visible Passes

Search period start: 29 August 2014 00:00
Search period end: 08 September 2014 00:00
Orbit: 659 x 670 km, 48.4° (Epoch: 25 August)

Date Brightness Start Highest point End Pass type
(mag) Time Alt. Az. Time Alt. Az. Time Alt. Az.
29 Aug 4.2 00:30:24 10° WSW 00:35:09 63° NNW 00:39:54 10° ENE visible
29 Aug 5.2 02:14:03 10° WNW 02:18:21 32° N 02:19:41 27° NNE visible
29 Aug 6.6 03:57:17 10° NW 03:57:42 12° NW 03:57:42 12° NW visible
30 Aug 4.9 01:02:42 10° W 01:07:12 39° NNW 01:11:42 10° NE visible
30 Aug 5.4 02:46:20 10° WNW 02:49:54 31° NNW 02:49:54 31° NNW visible
31 Aug 5.2 01:35:08 10° WNW 01:39:26 32° N 01:42:04 19° NE visible
31 Aug 6.0 03:18:18 10° NW 03:20:05 21° NW 03:20:05 21° NW visible
01 Sep 5.0 00:23:47 10° W 00:28:16 38° NNW 00:32:45 10° NE visible
01 Sep 5.0 02:07:23 10° WNW 02:11:42 33° N 02:12:13 32° NNE visible
01 Sep 6.7 03:50:06 10° WNW 03:50:14 11° WNW 03:50:14 11° WNW visible
02 Sep 5.2 00:56:13 10° WNW 01:00:30 31° N 01:04:20 12° ENE visible
02 Sep 5.3 02:39:20 10° NW 02:42:21 32° NNW 02:42:21 32° NNW visible
03 Sep 5.0 01:28:26 10° WNW 01:32:46 33° N 01:34:28 26° NE visible
03 Sep 6.1 03:11:07 10° WNW 03:12:29 19° NW 03:12:29 19° NW visible
04 Sep 5.2 00:17:17 10° WNW 00:21:34 31° N 00:25:51 10° ENE visible
04 Sep 4.5 02:00:21 10° NW 02:04:36 44° N 02:04:36 44° N visible
05 Sep 4.9 00:49:28 10° WNW 00:53:50 34° N 00:56:45 18° ENE visible
05 Sep 5.3 02:32:08 10° WNW 02:34:45 32° NW 02:34:45 32° NW visible
06 Sep 4.3 01:21:22 10° NW 01:26:00 46° NNE 01:26:55 41° NE visible
06 Sep 6.3 03:04:02 10° WNW 03:04:55 15° WNW 03:04:55 15° WNW visible
07 Sep 4.9 00:10:30 10° NW 00:14:54 34° N 00:19:06 11° ENE visible
07 Sep 4.1 01:53:09 10° WNW 01:57:07 60° NW 01:57:07 60° NW visible
